This is the latest recevied weather packets stored in our database for station/object KE5WTH-14. If no packets are shown the sender has not sent any weather packets the latest 10 day(s).
| Time | Temp. | Humidity | Pressure | Rain* | Wind** | Luminosity | Snow |
|---|---|---|---|---|---|---|---|
| 1777488334 | 17.22° C | 76% | 1014.1 hPa | 0 mm | - | 485 W/m² | - |
| 1777488272 | 17.22° C | 76% | 1014 hPa | 0 mm | - | 528 W/m² | - |
| 1777488238 | 17.22° C | 76% | 1014 hPa | 0 mm | - | 528 W/m² | - |
| 1777488207 | 17.22° C | 76% | 1014.2 hPa | 0 mm | - | 522 W/m² | - |
| 1777488178 | 17.22° C | 76% | 1014.4 hPa | 0 mm | - | 327 W/m² | - |
| 1777488010 | 17.22° C | 76% | 1014.6 hPa | 0 mm | - | 313 W/m² | - |
| 1777487950 | 17.22° C | 76% | 1014.7 hPa | 0 mm | - | 318 W/m² | - |
| 1777487889 | 17.22° C | 76% | 1014.7 hPa | 0 mm | - | 213 W/m² | - |
| 1777487827 | 17.22° C | 76% | 1014.9 hPa | 0 mm | - | 181 W/m² | - |
| 1777487767 | 17.22° C | 76% | 1015 hPa | 0 mm | - | 150 W/m² | - |
| 1777487708 | 17.22° C | 75% | 1015.1 hPa | 0 mm | - | 121 W/m² | - |
| 1777487647 | 17.22° C | 76% | 1015.3 hPa | 0 mm | - | 116 W/m² | - |
| 1777487588 | 17.22° C | 76% | 1015.3 hPa | 0 mm | - | 116 W/m² | - |
| 1777487530 | 17.22° C | 76% | 1015.3 hPa | 0 mm | - | 125 W/m² | - |
| 1777487468 | 17.22° C | 76% | 1015.3 hPa | 0 mm | - | 134 W/m² | - |
| 1777487408 | 17.22° C | 76% | 1015.2 hPa | 0 mm | - | 139 W/m² | - |
| 1777487348 | 17.22° C | 76% | 1015.3 hPa | 0 mm | - | 151 W/m² | - |
| 1777487287 | 17.22° C | 76% | 1015.2 hPa | 0 mm | - | 172 W/m² | - |
| 1777487227 | 17.22° C | 76% | 1015.1 hPa | 0 mm | - | 230 W/m² | - |
| 1777487168 | 17.22° C | 76% | 1015.1 hPa | 0 mm | - | 230 W/m² | - |
| 1777487107 | 17.22° C | 76% | 1015.1 hPa | 0 mm | - | 269 W/m² | - |
| 1777487048 | 17.22° C | 76% | 1015 hPa | 0 mm | - | 269 W/m² | - |
| 1777486987 | 17.22° C | 77% | 1014.9 hPa | 0 mm | - | 264 W/m² | - |
| 1777486928 | 17.22° C | 78% | 1014.9 hPa | 0 mm | - | 250 W/m² | - |
| 1777486866 | 17.22° C | 77% | 1015.1 hPa | 0 mm | - | 209 W/m² | - |
* Rain latest hour (hover to see other rain measurements)
** Current wind speed in m/s (hover to see current wind gust speed)